| time (UTC) | temp F | wind direction | speed knots | gust knots | rain 1hr in | rain 24hr in | rain mn in | humidity % | barometer mb |
| 20260508060438 | 62 | 48 | 0.0 | 0.9 | 0.00 | 0.00 | 0.00 | 69 | 1010.8 |
| 20260508055456 | 62 | 49 | 0.0 | 2.6 | 0.00 | 0.00 | 0.00 | 70 | 1010.8 |
| 20260508054506 | 61 | 41 | 0.0 | 2.6 | 0.00 | 0.00 | 0.00 | 70 | 1010.7 |
| 20260508052355 | 60 | 19 | 0.0 | 0.9 | 0.00 | 0.00 | 0.00 | 72 | 1010.5 |
| 20260508051332 | 60 | 5 | 0.0 | 1.7 | 0.00 | 0.00 | 0.00 | 72 | 1010.5 |
| 20260508050302 | 59 | 13 | 0.0 | 0.9 | 0.00 | 0.00 | 0.00 | 73 | 1010.5 |
| 20260508045308 | 59 | 5 | 0.0 | 3.5 | 0.00 | 0.00 | 0.00 | 74 | 1010.4 |
| 20260508044332 | 59 | 56 | 0.0 | 0.9 | 0.00 | 0.00 | 0.00 | 74 | 1010.3 |
| 20260508043306 | 59 | 59 | 0.0 | 1.7 | 0.00 | 0.00 | 0.00 | 74 | 1010.4 |
| 20260508041151 | 59 | 344 | 0.0 | 1.7 | 0.00 | 0.00 | 0.00 | 75 | 1010.3 |
| 20260508040145 | 59 | 36 | 0.0 | 1.7 | 0.00 | 0.00 | 0.00 | 75 | 1010.3 |
| 20260508035144 | 59 | 55 | 0.0 | 1.7 | 0.00 | 0.00 | 0.00 | 76 | 1010.2 |
| 20260508034150 | 58 | 59 | 0.0 | 1.7 | 0.00 | 0.00 | 0.00 | 76 | 1010.2 |
| 20260508033204 | 58 | 52 | 0.0 | 0.9 | 0.00 | 0.00 | 0.00 | 76 | 1010.2 |
| 20260508032222 | 58 | 52 | 0.0 | 2.6 | 0.00 | 0.00 | 0.00 | 77 | 1010.2 |
| 20260508031150 | 58 | 53 | 0.0 | 1.7 | 0.00 | 0.00 | 0.00 | 77 | 1010.2 |
| 20260508030141 | 58 | 21 | 0.0 | 1.7 | 0.00 | 0.00 | 0.00 | 77 | 1010.2 |
| 20260508025134 | 58 | 21 | 0.9 | 2.6 | 0.00 | 0.00 | 0.00 | 77 | 1010.2 |
| 20260508024154 | 58 | 30 | 0.9 | 2.6 | 0.00 | 0.00 | 0.00 | 77 | 1010.2 |
| 20260508023210 | 58 | 31 | 0.9 | 1.7 | 0.00 | 0.00 | 0.00 | 78 | 1010.4 |
| 20260508021027 | 59 | 31 | 0.0 | 0.0 | 0.00 | 0.00 | 0.00 | 77 | 1010.5 |
| 20260508020027 | 59 | 22 | 0.0 | 1.7 | 0.00 | 0.00 | 0.00 | 77 | 1010.6 |
| 20260508015040 | 59 | 22 | 0.0 | 1.7 | 0.00 | 0.00 | 0.00 | 77 | 1010.6 |
| 20260508014027 | 59 | 23 | 0.0 | 1.7 | 0.00 | 0.00 | 0.00 | 77 | 1010.6 |
| 20260508013032 | 59 | 37 | 0.0 | 1.7 | 0.00 | 0.00 | 0.00 | 77 | 1010.7 |
| 20260508012024 | 59 | 40 | 0.9 | 1.7 | 0.00 | 0.00 | 0.00 | 77 | 1010.7 |
| 20260508011019 | 59 | 40 | 0.9 | 1.7 | 0.00 | 0.00 | 0.00 | 77 | 1010.7 |
| 20260508004929 | 59 | 40 | 0.0 | 0.9 | 0.00 | 0.01 | 0.00 | 76 | 1011.0 |
| 20260508003901 | 60 | 42 | 0.0 | 0.0 | 0.00 | 0.02 | 0.00 | 76 | 1011.1 |
| 20260508002911 | 60 | 41 | 0.0 | 0.9 | 0.00 | 0.03 | 0.00 | 76 | 1011.2 |
| 20260508001839 | 60 | 38 | 0.0 | 0.9 | 0.00 | 0.03 | 0.00 | 76 | 1011.3 |
| 20260508000806 | 60 | 38 | 0.0 | 0.9 | 0.00 | 0.03 | 0.00 | 76 | 1011.3 |
| 20260507235742 | 60 | 38 | 0.9 | 1.7 | 0.00 | 0.03 | 0.00 | 76 | 1011.4 |
| 20260507234730 | 59 | 38 | 0.0 | 1.7 | 0.00 | 0.03 | 0.00 | 76 | 1011.4 |
| 20260507233740 | 59 | 38 | 0.0 | 1.7 | 0.00 | 0.03 | 0.00 | 76 | 1011.5 |
| 20260507232739 | 59 | 15 | 0.0 | 1.7 | 0.00 | 0.03 | 0.00 | 76 | 1011.5 |
| 20260507231715 | 59 | 13 | 0.0 | 1.7 | 0.00 | 0.03 | 0.00 | 76 | 1011.8 |
| 20260507230658 | 59 | 14 | 0.0 | 0.0 | 0.00 | 0.03 | 0.00 | 75 | 1012.2 |
| 20260507225648 | 60 | 5 | 0.0 | 0.9 | 0.00 | 0.04 | 0.00 | 75 | 1012.4 |
| 20260507224650 | 60 | 5 | 0.0 | 0.0 | 0.00 | 0.04 | 0.00 | 74 | 1012.4 |
| 20260507222510 | 60 | 5 | 0.0 | 2.6 | 0.00 | 0.04 | 0.00 | 73 | 1012.3 |
| 20260507221515 | 60 | 5 | 0.9 | 2.6 | 0.00 | 0.04 | 0.00 | 73 | 1012.2 |
| 20260507220455 | 60 | 5 | 0.9 | 1.7 | 0.00 | 0.04 | 0.00 | 72 | 1012.2 |
| 20260507215512 | 60 | 9 | 0.0 | 1.7 | 0.00 | 0.04 | 0.04 | 72 | 1012.2 |
| 20260507214521 | 60 | 9 | 0.0 | 0.9 | 0.00 | 0.04 | 0.04 | 71 | 1012.2 |
| 20260507213523 | 60 | 9 | 0.0 | 0.9 | 0.00 | 0.04 | 0.04 | 71 | 1012.3 |
| 20260507212457 | 60 | 9 | 0.0 | 0.0 | 0.00 | 0.04 | 0.04 | 71 | 1012.4 |
| 20260507211506 | 60 | 9 | 0.0 | 0.0 | 0.00 | 0.04 | 0.04 | 72 | 1012.3 |
| 20260507210501 | 60 | 9 | 0.0 | 0.0 | 0.00 | 0.04 | 0.04 | 72 | 1012.4 |
| 20260507205438 | 59 | 9 | 0.0 | 0.9 | 0.00 | 0.04 | 0.04 | 71 | 1012.4 |
| 20260507204412 | 60 | 9 | 0.0 | 0.0 | 0.00 | 0.04 | 0.04 | 70 | 1012.4 |
| 20260507202311 | 61 | 9 | 0.0 | 0.0 | 0.00 | 0.04 | 0.04 | 69 | 1012.3 |
| 20260507201258 | 62 | 9 | 0.0 | 0.0 | 0.00 | 0.04 | 0.04 | 67 | 1012.4 |
| 20260507200235 | 63 | 13 | 0.0 | 0.9 | 0.00 | 0.04 | 0.04 | 65 | 1012.2 |
| 20260507195204 | 63 | 13 | 0.0 | 0.0 | 0.00 | 0.04 | 0.04 | 66 | 1012.2 |
| 20260507194150 | 63 | 13 | 0.0 | 0.0 | 0.00 | 0.04 | 0.04 | 67 | 1012.1 |
| 20260507193209 | 63 | 13 | 0.0 | 0.0 | 0.00 | 0.04 | 0.04 | 67 | 1012.1 |
| 20260507192201 | 63 | 13 | 0.0 | 0.0 | 0.00 | 0.04 | 0.04 | 68 | 1012.1 |
| 20260507190003 | 63 | 44 | 0.0 | 0.0 | 0.00 | 0.05 | 0.04 | 64 | 1011.9 |
| 20260507184934 | 64 | 44 | 0.0 | 0.0 | 0.00 | 0.05 | 0.04 | 64 | 1012.0 |
| 20260507183956 | 65 | 44 | 0.0 | 0.0 | 0.00 | 0.05 | 0.04 | 63 | 1012.1 |
| 20260507183021 | 65 | 44 | 0.0 | 0.0 | 0.00 | 0.05 | 0.04 | 62 | 1012.0 |
| 20260507182022 | 65 | 44 | 0.0 | 0.0 | 0.00 | 0.05 | 0.04 | 62 | 1012.1 |
| 20260507181012 | 65 | 44 | 0.0 | 0.0 | 0.00 | 0.05 | 0.04 | 63 | 1012.0 |
| 20260507180034 | 66 | 44 | 0.0 | 0.0 | 0.00 | 0.05 | 0.04 | 63 | 1011.9 |
| 20260507173847 | 66 | 44 | 0.0 | 0.0 | 0.00 | 0.05 | 0.04 | 60 | 1011.7 |
| 20260507171735 | 67 | 44 | 0.0 | 0.0 | 0.00 | 0.06 | 0.04 | 61 | 1011.7 |
| 20260507165552 | 69 | 44 | 0.0 | 0.0 | 0.00 | 0.06 | 0.04 | 59 | 1011.6 |
| 20260507164607 | 69 | 44 | 0.0 | 0.0 | 0.00 | 0.06 | 0.04 | 60 | 1011.5 |
| 20260507163629 | 68 | 44 | 0.0 | 0.0 | 0.00 | 0.06 | 0.04 | 60 | 1011.5 |
| 20260507162619 | 67 | 44 | 0.0 | 0.0 | 0.00 | 0.06 | 0.04 | 61 | 1011.5 |
| 20260507161554 | 67 | 44 | 0.0 | 0.0 | 0.00 | 0.06 | 0.04 | 61 | 1011.6 |
| 20260507160559 | 68 | 44 | 0.0 | 0.0 | 0.00 | 0.06 | 0.04 | 61 | 1011.7 |
| 20260507155536 | 69 | 44 | 0.0 | 0.0 | 0.00 | 0.06 | 0.04 | 59 | 1011.8 |
| 20260507154516 | 69 | 49 | 0.0 | 0.0 | 0.00 | 0.06 | 0.04 | 56 | 1011.8 |
| 20260507153523 | 69 | 48 | 0.9 | 2.6 | 0.00 | 0.06 | 0.04 | 59 | 1011.9 |
| 20260507152546 | 69 | 62 | 0.0 | 2.6 | 0.00 | 0.06 | 0.04 | 60 | 1011.8 |
| 20260507151553 | 69 | 63 | 0.0 | 0.9 | 0.00 | 0.06 | 0.04 | 59 | 1011.9 |
| 20260507150604 | 70 | 62 | 0.0 | 0.0 | 0.00 | 0.07 | 0.04 | 60 | 1011.9 |
| 20260507145533 | 69 | 53 | 0.0 | 0.0 | 0.00 | 0.07 | 0.04 | 59 | 1012.0 |
| 20260507144522 | 69 | 63 | 0.9 | 2.6 | 0.00 | 0.07 | 0.04 | 60 | 1012.1 |
| 20260507143536 | 69 | 228 | 0.0 | 0.9 | 0.00 | 0.07 | 0.04 | 62 | 1012.1 |
| 20260507142541 | 69 | 223 | 0.0 | 0.0 | 0.00 | 0.07 | 0.04 | 62 | 1012.2 |
| 20260507141601 | 69 | 223 | 0.0 | 0.0 | 0.00 | 0.07 | 0.04 | 60 | 1012.4 |
| 20260507140615 | 70 | 223 | 0.0 | 1.7 | 0.00 | 0.07 | 0.04 | 59 | 1012.4 |
| 20260507135636 | 69 | 223 | 0.0 | 0.0 | 0.00 | 0.07 | 0.04 | 60 | 1012.6 |
| 20260507134616 | 70 | 223 | 0.0 | 0.0 | 0.00 | 0.07 | 0.04 | 60 | 1012.6 |
| 20260507133631 | 70 | 223 | 0.0 | 0.9 | 0.00 | 0.07 | 0.04 | 60 | 1012.8 |
| 20260507132636 | 70 | 223 | 0.0 | 1.7 | 0.00 | 0.07 | 0.04 | 58 | 1012.8 |
| 20260507130457 | 70 | 223 | 0.9 | 3.5 | 0.00 | 0.07 | 0.04 | 61 | 1013.0 |
| 20260507125426 | 69 | 283 | 0.9 | 5.2 | 0.00 | 0.07 | 0.04 | 61 | 1013.1 |
| 20260507124437 | 69 | 208 | 2.6 | 7.0 | 0.00 | 0.07 | 0.04 | 60 | 1013.1 |
| 20260507123406 | 69 | 238 | 1.7 | 7.0 | 0.00 | 0.07 | 0.04 | 58 | 1013.0 |
| 20260507122410 | 70 | 178 | 2.6 | 6.1 | 0.00 | 0.07 | 0.04 | 59 | 1013.0 |
| 20260507121410 | 70 | 228 | 0.9 | 3.5 | 0.00 | 0.07 | 0.04 | 58 | 1013.1 |
| 20260507120400 | 69 | 144 | 0.0 | 1.7 | 0.00 | 0.07 | 0.04 | 60 | 1013.1 |
| 20260507115340 | 68 | 100 | 1.7 | 5.2 | 0.00 | 0.07 | 0.04 | 62 | 1013.1 |
| 20260507114402 | 68 | 158 | 1.7 | 5.2 | 0.00 | 0.07 | 0.04 | 62 | 1013.2 |
| 20260507113353 | 68 | 125 | 0.9 | 5.2 | 0.00 | 0.07 | 0.04 | 62 | 1013.2 |
| 20260507112341 | 67 | 215 | 3.5 | 6.1 | 0.00 | 0.07 | 0.04 | 64 | 1013.3 |
| 20260507111335 | 67 | 165 | 1.7 | 7.0 | 0.00 | 0.07 | 0.04 | 66 | 1013.4 |
| 20260507110330 | 67 | 121 | 1.7 | 7.0 | 0.00 | 0.07 | 0.04 | 66 | 1013.5 |
| 20260507105322 | 66 | 230 | 1.7 | 5.2 | 0.00 | 0.07 | 0.04 | 67 | 1013.5 |
| 20260507104253 | 66 | 227 | 0.9 | 4.3 | 0.00 | 0.07 | 0.04 | 69 | 1013.6 |
| 20260507103301 | 65 | 156 | 1.7 | 6.1 | 0.00 | 0.07 | 0.04 | 70 | 1013.7 |
| 20260507102325 | 66 | 215 | 1.7 | 6.1 | 0.00 | 0.07 | 0.04 | 71 | 1013.8 |
| 20260507101350 | 66 | 240 | 2.6 | 6.1 | 0.00 | 0.07 | 0.04 | 71 | 1013.8 |
| 20260507100407 | 65 | 234 | 1.7 | 4.3 | 0.00 | 0.07 | 0.04 | 72 | 1013.7 |
| 20260507093147 | 64 | 202 | 0.9 | 3.5 | 0.00 | 0.07 | 0.04 | 76 | 1013.8 |
| 20260507092200 | 63 | 218 | 0.9 | 3.5 | 0.00 | 0.07 | 0.04 | 78 | 1013.9 |
| 20260507091139 | 63 | 213 | 0.9 | 4.3 | 0.00 | 0.07 | 0.04 | 79 | 1014.1 |
| 20260507090120 | 63 | 213 | 1.7 | 7.0 | 0.00 | 0.07 | 0.04 | 78 | 1014.1 |
| 20260507085133 | 63 | 94 | 0.9 | 6.1 | 0.00 | 0.07 | 0.04 | 78 | 1014.0 |
| 20260507084102 | 63 | 126 | 0.9 | 4.3 | 0.00 | 0.07 | 0.04 | 81 | 1013.9 |
| 20260507083045 | 62 | 190 | 1.7 | 7.0 | 0.00 | 0.07 | 0.04 | 82 | 1014.0 |
| 20260507080916 | 60 | 203 | 2.6 | 6.1 | 0.00 | 0.07 | 0.04 | 85 | 1014.1 |
| 20260507075940 | 60 | 192 | 2.6 | 6.1 | 0.00 | 0.07 | 0.04 | 85 | 1014.1 |
| 20260507074924 | 60 | 153 | 1.7 | 5.2 | 0.00 | 0.07 | 0.04 | 87 | 1013.9 |
| 20260507073942 | 59 | 202 | 1.7 | 6.1 | 0.00 | 0.07 | 0.04 | 88 | 1014.0 |
| 20260507072933 | 58 | 219 | 1.7 | 6.1 | 0.00 | 0.07 | 0.04 | 88 | 1013.9 |
| 20260507071904 | 58 | 223 | 2.6 | 7.0 | 0.00 | 0.07 | 0.04 | 88 | 1014.0 |
| 20260507070835 | 58 | 234 | 3.5 | 7.0 | 0.00 | 0.07 | 0.04 | 89 | 1014.0 |
| 20260507065856 | 57 | 214 | 2.6 | 6.1 | 0.00 | 0.07 | 0.04 | 89 | 1013.9 |
| 20260507064838 | 57 | 198 | 2.6 | 6.1 | 0.00 | 0.07 | 0.04 | 90 | 1013.8 |
| 20260507063836 | 57 | 199 | 2.6 | 7.0 | 0.00 | 0.07 | 0.04 | 90 | 1013.8 |
| 20260507062806 | 56 | 209 | 3.5 | 7.0 | 0.00 | 0.07 | 0.04 | 90 | 1013.7 |